Preview of NWS' New Version of Forecast
This preview is not operational and should not be used for support decisions.

Regional Weather Roundup (RWR)

Issued by National Weather Service (NWS)

                            
000
ASUS43 KBIS 241402
RWRND 

NORTH DAKOTA REGIONAL WEATHER ROUNDUP
NATIONAL WEATHER SERVICE BISMARCK ND
900 AM CDT WED APR 24 2019

NOTE: "FAIR" INDICATES FEW OR NO CLOUDS BELOW 12,000 FEET WITH NO
SIGNIFICANT WEATHER AND/OR OBSTRUCTIONS TO VISIBILITY.


NDZ001>003-009>011-017-241500-
NORTHWEST NORTH DAKOTA
  
CITY           SKY/WX    TMP DP  RH WIND       PRES   REMARKS
WILLISTON      FAIR      51  44  77 CALM      29.85R                  
MINOT          FAIR      54  42  64 NW10      29.78R                  
MINOT AFB      FAIR      52  42  68 NW10      29.77R                  
$$
 
NDZ018>021-031>035-040>046-241500-
SOUTHWEST NORTH DAKOTA
  
CITY           SKY/WX    TMP DP  RH WIND       PRES   REMARKS
BISMARCK       FAIR      57  42  57 NW3       29.79R                  
DICKINSON      PTSUNNY   53  38  56 W12       29.82R                  
GARRISON         N/A     52  40  63 N9        29.79R                  
HETTINGER ARPT PTSUNNY   56  44  64 W16       29.86R                  
$$
 
NDZ004>008-012>016-024-026-027-054-241500-
NORTHEAST NORTH DAKOTA
  
CITY           SKY/WX    TMP DP  RH WIND       PRES   REMARKS
GRAND FORKS    PTSUNNY   58  40  51 NW12      29.69R                  
GRND FRKS AFB  MOSUNNY   57  37  47 NW14G21   29.72R                  
DEVILS LAKE    FAIR      55  39  54 N12       29.72R                  
$$
 
NDZ022-023-025-028>030-036>039-047>053-241500-
SOUTHEAST NORTH DAKOTA
  
CITY           SKY/WX    TMP DP  RH WIND       PRES   REMARKS
FARGO          FAIR      57  44  62 SW10      29.71R                  
JAMESTOWN      FAIR      57  42  57 W13       29.73R                  
$$